Time,TemperatureF,DewpointF,PressureIn,WindDirection,WindDirectionDegrees,WindSpeedMPH,WindSpeedGustMPH,Humidity,HourlyPrecipIn,Conditions,Clouds,dailyrainin,SoftwareType,DateUTC
2013-01-11 00:00:00,36.5,-8.1,31.03,West,276,10.0,13.0,14,-99.99,,,0.00,meteohub,2013-01-11 05:00:00,
2013-01-11 00:02:00,36.3,-8.3,31.03,West,264,11.0,13.0,14,-99.99,,,0.00,meteohub,2013-01-11 05:02:00,
2013-01-11 00:06:00,36.3,-8.3,31.03,WSW,256,9.0,13.0,14,-99.99,,,0.00,meteohub,2013-01-11 05:06:00,
2013-01-11 00:08:00,36.3,-8.3,31.03,WSW,245,6.0,12.0,14,-99.99,,,0.00,meteohub,2013-01-11 05:08:00,
2013-01-11 00:13:00,36.3,-8.3,31.03,West,263,8.0,12.0,14,-99.99,,,0.00,meteohub,2013-01-11 05:13:00,
2013-01-11 00:19:00,36.3,-8.3,31.03,West,259,5.0,12.0,14,-99.99,,,0.00,meteohub,2013-01-11 05:19:00,
2013-01-11 00:24:00,36.3,-8.3,31.03,West,266,6.0,12.0,14,-99.99,,,0.00,meteohub,2013-01-11 05:24:00,
2013-01-11 00:29:00,36.1,-8.5,31.03,SW,214,6.0,12.0,14,-99.99,,,0.00,meteohub,2013-01-11 05:29:00,
2013-01-11 00:35:00,36.1,-4.5,31.03,WSW,254,6.0,11.0,17,-99.99,,,0.00,meteohub,2013-01-11 05:35:00,
2013-01-11 00:40:00,36.1,-4.5,31.03,WSW,258,5.0,11.0,17,-99.99,,,0.00,meteohub,2013-01-11 05:40:00,
2013-01-11 00:45:00,36.1,-4.5,31.03,West,270,6.0,11.0,17,-99.99,,,0.00,meteohub,2013-01-11 05:45:00,
2013-01-11 00:50:00,36.0,-4.7,31.03,WSW,237,8.0,11.0,17,-99.99,,,0.00,meteohub,2013-01-11 05:50:00,
2013-01-11 00:56:00,36.1,-4.5,31.03,WSW,249,8.0,11.0,17,-99.99,,,0.00,meteohub,2013-01-11 05:56:00,
2013-01-11 01:01:00,36.0,-4.7,31.03,WNW,285,6.0,11.0,17,-99.99,,,0.00,meteohub,2013-01-11 06:01:00,
2013-01-11 01:06:00,35.8,-4.7,31.03,WSW,240,3.0,11.0,17,-99.99,,,0.00,meteohub,2013-01-11 06:06:00,
2013-01-11 01:11:00,35.8,-2.6,31.03,WSW,247,6.0,11.0,19,-99.99,,,0.00,meteohub,2013-01-11 06:11:00,
2013-01-11 01:16:00,35.8,-2.6,31.03,West,259,4.0,8.0,19,-99.99,,,0.00,meteohub,2013-01-11 06:16:00,
2013-01-11 01:22:00,35.6,-2.6,31.03,WNW,288,5.0,9.0,19,-99.99,,,0.00,meteohub,2013-01-11 06:22:00,
2013-01-11 01:27:00,35.6,-2.6,31.03,WSW,253,10.0,10.0,19,-99.99,,,0.00,meteohub,2013-01-11 06:27:00,
2013-01-11 01:32:00,35.4,-1.7,31.03,WSW,242,4.0,10.0,20,-99.99,,,0.00,meteohub,2013-01-11 06:32:00,
2013-01-11 01:37:00,35.4,-1.7,31.03,SW,216,4.0,10.0,20,-99.99,,,0.00,meteohub,2013-01-11 06:37:00,
2013-01-11 01:42:00,35.4,-1.7,31.03,WNW,294,3.0,10.0,20,-99.99,,,0.00,meteohub,2013-01-11 06:42:00,
2013-01-11 01:47:00,35.1,-2.0,31.03,WNW,284,3.0,10.0,20,-99.99,,,0.00,meteohub,2013-01-11 06:47:00,
2013-01-11 01:52:00,35.1,-2.0,31.03,WNW,290,5.0,8.0,20,-99.99,,,0.00,meteohub,2013-01-11 06:52:00,
2013-01-11 01:57:00,35.1,-2.0,31.03,West,266,5.0,8.0,20,-99.99,,,0.00,meteohub,2013-01-11 06:57:00,
2013-01-11 02:02:00,34.9,-2.2,31.03,West,271,4.0,6.0,20,-99.99,,,0.00,meteohub,2013-01-11 07:02:00,
2013-01-11 02:07:00,34.9,-2.2,31.03,West,274,5.0,6.0,20,-99.99,,,0.00,meteohub,2013-01-11 07:07:00,
2013-01-11 02:12:00,34.9,-2.2,31.03,West,274,5.0,6.0,20,-99.99,,,0.00,meteohub,2013-01-11 07:12:00,
2013-01-11 02:17:00,34.7,-2.4,31.03,West,265,4.0,6.0,20,-99.99,,,0.00,meteohub,2013-01-11 07:17:00,
2013-01-11 02:22:00,34.5,-2.4,31.03,West,265,4.0,6.0,20,-99.99,,,0.00,meteohub,2013-01-11 07:22:00,
2013-01-11 02:27:00,34.5,-2.4,31.03,WSW,248,4.0,6.0,20,-99.99,,,0.00,meteohub,2013-01-11 07:27:00,
2013-01-11 02:32:00,34.3,-2.6,31.03,WSW,239,4.0,5.0,20,-99.99,,,0.00,meteohub,2013-01-11 07:32:00,
2013-01-11 02:37:00,34.3,-2.6,31.03,West,281,3.0,5.0,20,-99.99,,,0.00,meteohub,2013-01-11 07:37:00,
2013-01-11 02:42:00,34.3,-2.6,31.03,West,262,4.0,4.0,20,-99.99,,,0.00,meteohub,2013-01-11 07:42:00,
2013-01-11 02:48:00,34.2,-2.7,31.03,West,280,4.0,5.0,20,-99.99,,,0.00,meteohub,2013-01-11 07:48:00,
2013-01-11 02:53:00,34.0,-2.9,31.03,WSW,246,5.0,6.0,20,-99.99,,,0.00,meteohub,2013-01-11 07:53:00,
2013-01-11 02:58:00,33.4,-3.3,31.03,WSW,244,4.0,6.0,20,-99.99,,,0.00,meteohub,2013-01-11 07:58:00,
2013-01-11 03:03:00,33.4,-0.4,31.03,WSW,246,4.0,6.0,23,-99.99,,,0.00,meteohub,2013-01-11 08:03:00,
2013-01-11 03:09:00,33.4,-0.4,31.03,WSW,246,4.0,6.0,23,-99.99,,,0.00,meteohub,2013-01-11 08:09:00,
2013-01-11 03:14:00,33.6,1.6,31.03,SW,227,3.0,5.0,25,-99.99,,,0.00,meteohub,2013-01-11 08:14:00,
2013-01-11 03:19:00,33.3,1.2,31.03,SW,221,4.0,6.0,25,-99.99,,,0.00,meteohub,2013-01-11 08:19:00,
2013-01-11 03:24:00,33.3,1.2,31.03,SW,224,3.0,6.0,25,-99.99,,,0.00,meteohub,2013-01-11 08:24:00,
2013-01-11 03:29:00,33.6,6.3,31.03,SW,231,3.0,5.0,31,-99.99,,,0.00,meteohub,2013-01-11 08:29:00,
2013-01-11 03:35:00,33.6,7.0,31.03,WSW,245,6.0,6.0,32,-99.99,,,0.00,meteohub,2013-01-11 08:35:00,
2013-01-11 03:40:00,33.6,7.0,31.03,WSW,246,3.0,6.0,32,-99.99,,,0.00,meteohub,2013-01-11 08:40:00,
2013-01-11 03:45:00,33.4,6.1,31.03,West,263,2.0,6.0,31,-99.99,,,0.00,meteohub,2013-01-11 08:45:00,
2013-01-11 03:50:00,33.4,6.1,31.03,West,276,4.0,6.0,31,-99.99,,,0.00,meteohub,2013-01-11 08:50:00,
2013-01-11 03:56:00,33.3,5.9,31.03,WNW,289,4.0,5.0,31,-99.99,,,0.00,meteohub,2013-01-11 08:56:00,
2013-01-11 04:01:00,33.3,5.9,31.03,WNW,299,2.0,5.0,31,-99.99,,,0.00,meteohub,2013-01-11 09:01:00,
2013-01-11 04:06:00,33.3,5.9,31.03,WNW,300,3.0,5.0,31,-99.99,,,0.00,meteohub,2013-01-11 09:06:00,
2013-01-11 04:11:00,33.1,5.7,31.03,West,268,3.0,4.0,31,-99.99,,,0.00,meteohub,2013-01-11 09:11:00,
2013-01-11 04:16:00,32.7,5.4,31.03,West,266,3.0,3.0,31,-99.99,,,0.00,meteohub,2013-01-11 09:16:00,
2013-01-11 04:22:00,32.5,5.2,31.03,West,266,3.0,3.0,31,-99.99,,,0.00,meteohub,2013-01-11 09:22:00,
2013-01-11 04:27:00,32.4,5.0,31.03,West,266,3.0,3.0,31,-99.99,,,0.00,meteohub,2013-01-11 09:27:00,
2013-01-11 04:32:00,32.4,5.0,31.03,SW,229,3.0,3.0,31,-99.99,,,0.00,meteohub,2013-01-11 09:32:00,
2013-01-11 04:37:00,32.0,4.8,31.03,SW,226,3.0,4.0,31,-99.99,,,0.00,meteohub,2013-01-11 09:37:00,
2013-01-11 04:42:00,31.8,4.6,31.03,WSW,239,0.0,4.0,31,-99.99,,,0.00,meteohub,2013-01-11 09:42:00,
2013-01-11 04:47:00,31.6,4.5,31.03,WSW,239,0.0,4.0,31,-99.99,,,0.00,meteohub,2013-01-11 09:47:00,
2013-01-11 04:53:00,31.5,4.3,31.03,WSW,239,0.0,3.0,31,-99.99,,,0.00,meteohub,2013-01-11 09:53:00,
2013-01-11 04:58:00,31.1,3.9,31.03,WSW,239,0.0,3.0,31,-99.99,,,0.00,meteohub,2013-01-11 09:58:00,
2013-01-11 05:03:00,31.1,3.9,31.03,South,191,0.0,3.0,31,-99.99,,,0.00,meteohub,2013-01-11 10:03:00,
2013-01-11 05:08:00,31.5,4.3,31.03,SSW,192,0.0,4.0,31,-99.99,,,0.00,meteohub,2013-01-11 10:08:00,
2013-01-11 05:14:00,31.1,3.9,31.03,South,191,0.0,4.0,31,-99.99,,,0.00,meteohub,2013-01-11 10:14:00,
2013-01-11 05:19:00,30.9,3.7,31.03,SSW,204,0.0,4.0,31,-99.99,,,0.00,meteohub,2013-01-11 10:19:00,
2013-01-11 05:24:00,30.9,3.7,31.03,SSW,207,0.0,0.0,31,-99.99,,,0.00,meteohub,2013-01-11 10:24:00,
2013-01-11 05:30:00,30.6,3.6,31.03,SSW,207,0.0,0.0,31,-99.99,,,0.00,meteohub,2013-01-11 10:30:00,
2013-01-11 05:35:00,30.2,3.2,31.03,WSW,258,0.0,0.0,31,-99.99,,,0.00,meteohub,2013-01-11 10:35:00,
2013-01-11 05:40:00,30.0,3.0,31.03,West,276,4.0,0.0,31,-99.99,,,0.00,meteohub,2013-01-11 10:40:00,
2013-01-11 05:46:00,29.8,2.8,31.03,West,263,4.0,4.0,31,-99.99,,,0.00,meteohub,2013-01-11 10:46:00,
2013-01-11 05:51:00,29.5,2.5,31.03,West,267,3.0,5.0,31,-99.99,,,0.00,meteohub,2013-01-11 10:51:00,
2013-01-11 05:56:00,29.3,2.5,31.03,West,267,0.0,5.0,31,-99.99,,,0.00,meteohub,2013-01-11 10:56:00,
2013-01-11 06:02:00,29.5,3.2,31.03,West,268,0.0,5.0,32,-99.99,,,0.00,meteohub,2013-01-11 11:02:00,
2013-01-11 06:07:00,29.5,3.2,31.03,West,268,0.0,5.0,32,-99.99,,,0.00,meteohub,2013-01-11 11:07:00,
2013-01-11 06:12:00,29.5,2.5,31.03,West,267,0.0,2.0,31,-99.99,,,0.00,meteohub,2013-01-11 11:12:00,
2013-01-11 06:17:00,29.5,2.5,31.03,West,268,0.0,2.0,31,-99.99,,,0.00,meteohub,2013-01-11 11:17:00,
2013-01-11 06:22:00,29.3,2.5,31.03,West,267,0.0,0.0,31,-99.99,,,0.00,meteohub,2013-01-11 11:22:00,
2013-01-11 06:27:00,29.1,2.3,31.03,West,265,0.0,0.0,31,-99.99,,,0.00,meteohub,2013-01-11 11:27:00,
2013-01-11 06:32:00,29.3,2.5,31.03,SW,217,0.0,0.0,31,-99.99,,,0.00,meteohub,2013-01-11 11:32:00,
2013-01-11 06:37:00,29.1,2.3,31.03,WSW,246,3.0,0.0,31,-99.99,,,0.00,meteohub,2013-01-11 11:37:00,
2013-01-11 06:42:00,29.1,2.3,31.03,SW,234,4.0,0.0,31,-99.99,,,0.00,meteohub,2013-01-11 11:42:00,
2013-01-11 06:47:00,29.7,4.1,31.03,SW,229,4.0,5.0,33,-99.99,,,0.00,meteohub,2013-01-11 11:47:00,
2013-01-11 06:52:00,30.0,5.0,31.03,SW,226,4.0,5.0,34,-99.99,,,0.00,meteohub,2013-01-11 11:52:00,
2013-01-11 06:57:00,30.6,6.8,31.03,SW,236,4.0,5.0,36,-99.99,,,0.00,meteohub,2013-01-11 11:57:00,
2013-01-11 07:02:00,30.9,7.2,31.03,WSW,237,4.0,5.0,36,-99.99,,,0.00,meteohub,2013-01-11 12:02:00,
2013-01-11 07:07:00,30.9,6.4,31.03,West,276,4.0,5.0,35,-99.99,,,0.00,meteohub,2013-01-11 12:07:00,
2013-01-11 07:12:00,30.7,5.7,31.03,WSW,258,4.0,5.0,34,-99.99,,,0.00,meteohub,2013-01-11 12:12:00,
2013-01-11 07:17:00,30.6,6.1,31.03,WSW,258,5.0,5.0,35,-99.99,,,0.00,meteohub,2013-01-11 12:17:00,
2013-01-11 07:22:00,30.6,6.1,31.03,WSW,243,4.0,5.0,35,-99.99,,,0.00,meteohub,2013-01-11 12:22:00,
2013-01-11 07:27:00,30.6,6.1,31.03,WSW,242,4.0,5.0,35,-99.99,,,0.00,meteohub,2013-01-11 12:27:00,
2013-01-11 07:32:00,30.6,6.1,31.03,West,259,4.0,5.0,35,-99.99,,,0.00,meteohub,2013-01-11 12:32:00,
2013-01-11 07:37:00,30.7,6.3,31.03,WSW,257,3.0,4.0,35,-99.99,,,0.00,meteohub,2013-01-11 12:37:00,
2013-01-11 07:42:00,31.1,6.6,31.03,West,261,4.0,4.0,35,-99.99,,,0.00,meteohub,2013-01-11 12:42:00,
2013-01-11 07:47:00,31.1,6.6,31.03,West,271,4.0,4.0,35,-99.99,,,0.00,meteohub,2013-01-11 12:47:00,
2013-01-11 07:52:00,31.3,6.8,31.03,WNW,287,4.0,5.0,35,-99.99,,,0.00,meteohub,2013-01-11 12:52:00,
2013-01-11 07:57:00,31.5,7.0,31.03,WNW,288,4.0,5.0,35,-99.99,,,0.00,meteohub,2013-01-11 12:57:00,
2013-01-11 08:02:00,31.6,7.2,31.03,WNW,293,4.0,5.0,35,-99.99,,,0.00,meteohub,2013-01-11 13:02:00,
2013-01-11 08:07:00,31.8,7.3,31.03,WNW,294,3.0,5.0,35,-99.99,,,0.00,meteohub,2013-01-11 13:07:00,
2013-01-11 08:12:00,32.2,7.5,31.03,WNW,294,2.0,4.0,35,-99.99,,,0.00,meteohub,2013-01-11 13:12:00,
2013-01-11 08:17:00,32.5,8.6,31.03,WNW,294,3.0,4.0,36,-99.99,,,0.00,meteohub,2013-01-11 13:17:00,
2013-01-11 08:22:00,32.7,8.8,31.03,WNW,294,3.0,4.0,36,-99.99,,,0.00,meteohub,2013-01-11 13:22:00,
2013-01-11 08:27:00,33.1,9.0,31.03,WNW,284,3.0,3.0,36,-99.99,,,0.00,meteohub,2013-01-11 13:27:00,
2013-01-11 08:32:00,33.3,9.1,31.03,WNW,287,3.0,3.0,36,-99.99,,,0.00,meteohub,2013-01-11 13:32:00,
2013-01-11 08:37:00,33.6,9.5,31.03,West,280,2.0,3.0,36,-99.99,,,0.00,meteohub,2013-01-11 13:37:00,
2013-01-11 08:42:00,33.8,9.7,31.03,West,280,3.0,3.0,36,-99.99,,,0.00,meteohub,2013-01-11 13:42:00,
2013-01-11 08:47:00,34.2,10.0,31.03,West,281,3.0,4.0,36,-99.99,,,0.00,meteohub,2013-01-11 13:47:00,
2013-01-11 08:52:00,34.3,10.2,31.03,West,276,3.0,4.0,36,-99.99,,,0.00,meteohub,2013-01-11 13:52:00,
2013-01-11 08:57:00,34.9,11.3,31.03,West,263,3.0,4.0,37,-99.99,,,0.00,meteohub,2013-01-11 13:57:00,
2013-01-11 09:02:00,35.2,11.5,31.03,West,263,3.0,4.0,37,-99.99,,,0.00,meteohub,2013-01-11 14:02:00,
2013-01-11 09:07:00,35.6,11.8,31.03,NW,307,3.0,4.0,37,-99.99,,,0.00,meteohub,2013-01-11 14:07:00,
2013-01-11 09:12:00,36.5,13.8,31.03,WNW,303,4.0,4.0,39,-99.99,,,0.00,meteohub,2013-01-11 14:12:00,
2013-01-11 09:17:00,37.4,14.7,31.03,WNW,303,3.0,5.0,39,-99.99,,,0.00,meteohub,2013-01-11 14:17:00,
2013-01-11 09:22:00,37.9,15.3,31.03,NW,311,4.0,6.0,39,-99.99,,,0.00,meteohub,2013-01-11 14:22:00,
2013-01-11 09:28:00,38.5,15.1,31.03,NW,310,4.0,6.0,38,-99.99,,,0.00,meteohub,2013-01-11 14:28:00,
2013-01-11 09:33:00,38.8,13.5,31.03,NW,308,5.0,6.0,35,-99.99,,,0.00,meteohub,2013-01-11 14:33:00,
2013-01-11 09:39:00,39.6,12.7,31.03,NNW,329,5.0,6.0,33,-99.99,,,0.00,meteohub,2013-01-11 14:39:00,
2013-01-11 09:44:00,39.9,13.1,31.03,NNW,338,6.0,9.0,33,-99.99,,,0.00,meteohub,2013-01-11 14:44:00,
2013-01-11 09:49:00,40.5,11.5,31.03,NNW,344,8.0,9.0,30,-99.99,,,0.00,meteohub,2013-01-11 14:49:00,
2013-01-11 09:54:00,41.0,10.4,31.03,North,357,6.0,9.0,28,-99.99,,,0.00,meteohub,2013-01-11 14:54:00,
2013-01-11 10:00:00,41.2,9.0,31.03,NNW,331,3.0,9.0,26,-99.99,,,0.00,meteohub,2013-01-11 15:00:00,
2013-01-11 10:05:00,41.4,10.8,31.03,North,9,0.0,9.0,28,-99.99,,,0.00,meteohub,2013-01-11 15:05:00,
2013-01-11 10:10:00,41.2,9.0,31.03,NNW,343,4.0,9.0,26,-99.99,,,0.00,meteohub,2013-01-11 15:10:00,
2013-01-11 10:16:00,41.2,4.1,31.03,North,353,3.0,8.0,21,-99.99,,,0.00,meteohub,2013-01-11 15:16:00,
2013-01-11 10:21:00,41.5,4.5,31.03,NNW,335,6.0,6.0,21,-99.99,,,0.00,meteohub,2013-01-11 15:21:00,
2013-01-11 10:26:00,41.4,1.0,31.03,NW,321,7.0,9.0,18,-99.99,,,0.00,meteohub,2013-01-11 15:26:00,
2013-01-11 10:32:00,41.7,1.2,31.03,WNW,303,7.0,9.0,18,-99.99,,,0.00,meteohub,2013-01-11 15:32:00,
2013-01-11 10:37:00,41.9,1.4,31.03,North,3,4.0,9.0,18,-99.99,,,0.00,meteohub,2013-01-11 15:37:00,
2013-01-11 10:42:00,41.9,1.4,31.03,North,3,5.0,9.0,18,-99.99,,,0.00,meteohub,2013-01-11 15:42:00,
2013-01-11 10:47:00,41.9,-1.1,31.03,NE,35,6.0,8.0,16,-99.99,,,0.00,meteohub,2013-01-11 15:47:00,
2013-01-11 10:52:00,42.1,-0.9,31.03,NNE,16,5.0,8.0,16,-99.99,,,0.00,meteohub,2013-01-11 15:52:00,
2013-01-11 10:57:00,42.1,-0.9,31.03,NE,52,4.0,8.0,16,-99.99,,,0.00,meteohub,2013-01-11 15:57:00,
2013-01-11 11:02:00,41.9,1.4,31.03,NE,49,5.0,8.0,18,-99.99,,,0.00,meteohub,2013-01-11 16:02:00,
2013-01-11 11:07:00,41.7,1.2,31.03,NE,56,6.0,8.0,18,-99.99,,,0.00,meteohub,2013-01-11 16:07:00,
2013-01-11 11:12:00,41.5,1.2,31.03,NE,54,4.0,6.0,18,-99.99,,,0.00,meteohub,2013-01-11 16:12:00,
2013-01-11 11:17:00,41.5,1.2,31.03,NE,46,6.0,6.0,18,-99.99,,,0.00,meteohub,2013-01-11 16:17:00,
2013-01-11 11:22:00,41.5,1.2,31.03,ENE,58,6.0,6.0,18,-99.99,,,0.00,meteohub,2013-01-11 16:22:00,
2013-01-11 11:27:00,42.1,5.0,31.03,NNE,18,5.0,6.0,21,-99.99,,,0.00,meteohub,2013-01-11 16:27:00,
2013-01-11 11:32:00,42.1,1.6,31.03,NNE,16,6.0,6.0,18,-99.99,,,0.00,meteohub,2013-01-11 16:32:00,
2013-01-11 11:37:00,41.9,1.4,31.03,NE,39,6.0,9.0,18,-99.99,,,0.00,meteohub,2013-01-11 16:37:00,
2013-01-11 11:42:00,41.7,1.2,31.03,NE,44,6.0,9.0,18,-99.99,,,0.00,meteohub,2013-01-11 16:42:00,
2013-01-11 11:47:00,41.5,4.5,31.03,NE,47,6.0,9.0,21,-99.99,,,0.00,meteohub,2013-01-11 16:47:00,
2013-01-11 11:52:00,41.4,4.3,31.03,NNE,22,6.0,8.0,21,-99.99,,,0.00,meteohub,2013-01-11 16:52:00,
2013-01-11 11:58:00,41.5,4.5,31.03,NE,43,6.0,8.0,21,-99.99,,,0.00,meteohub,2013-01-11 16:58:00,
2013-01-11 12:03:00,41.5,4.5,31.03,NNE,33,6.0,8.0,21,-99.99,,,0.00,meteohub,2013-01-11 17:03:00,
2013-01-11 12:08:00,41.2,4.1,31.03,NE,44,4.0,8.0,21,-99.99,,,0.00,meteohub,2013-01-11 17:08:00,
2013-01-11 12:13:00,41.2,6.3,31.03,ENE,75,4.0,7.0,23,-99.99,,,0.00,meteohub,2013-01-11 17:13:00,
2013-01-11 12:19:00,41.2,4.1,31.03,NE,51,3.0,6.0,21,-99.99,,,0.00,meteohub,2013-01-11 17:19:00,
2013-01-11 12:24:00,41.2,4.1,31.03,ENE,63,4.0,6.0,21,-99.99,,,0.00,meteohub,2013-01-11 17:24:00,
2013-01-11 12:29:00,41.0,4.1,31.03,NE,51,6.0,6.0,21,-99.99,,,0.00,meteohub,2013-01-11 17:29:00,
2013-01-11 12:34:00,41.0,4.1,31.03,NE,39,5.0,6.0,21,-99.99,,,0.00,meteohub,2013-01-11 17:34:00,
2013-01-11 12:40:00,41.0,4.1,31.03,NE,48,6.0,6.0,21,-99.99,,,0.00,meteohub,2013-01-11 17:40:00,
2013-01-11 12:45:00,41.0,4.1,31.03,NE,45,6.0,7.0,21,-99.99,,,0.00,meteohub,2013-01-11 17:45:00,
2013-01-11 12:50:00,41.0,4.1,31.03,NE,49,5.0,7.0,21,-99.99,,,0.00,meteohub,2013-01-11 17:50:00,
2013-01-11 12:55:00,41.0,4.1,31.03,NE,44,5.0,7.0,21,-99.99,,,0.00,meteohub,2013-01-11 17:55:00,
2013-01-11 13:01:00,40.8,3.9,31.03,NE,49,3.0,6.0,21,-99.99,,,0.00,meteohub,2013-01-11 18:01:00,
2013-01-11 13:06:00,40.6,3.7,31.03,NE,52,4.0,6.0,21,-99.99,,,0.00,meteohub,2013-01-11 18:06:00,
2013-01-11 13:11:00,40.8,3.9,31.03,East,86,3.0,6.0,21,-99.99,,,0.00,meteohub,2013-01-11 18:11:00,
2013-01-11 13:16:00,41.0,4.1,31.03,East,95,3.0,5.0,21,-99.99,,,0.00,meteohub,2013-01-11 18:16:00,
2013-01-11 13:21:00,41.0,4.1,31.03,NE,48,4.0,5.0,21,-99.99,,,0.00,meteohub,2013-01-11 18:21:00,
2013-01-11 13:27:00,41.0,0.7,31.03,NE,44,4.0,5.0,18,-99.99,,,0.00,meteohub,2013-01-11 18:27:00,
2013-01-11 13:32:00,41.2,0.9,31.03,NE,38,3.0,5.0,18,-99.99,,,0.00,meteohub,2013-01-11 18:32:00,
2013-01-11 13:37:00,41.4,1.0,31.03,NE,42,3.0,5.0,18,-99.99,,,0.00,meteohub,2013-01-11 18:37:00,
2013-01-11 13:42:00,41.4,-1.5,31.03,NE,40,3.0,5.0,16,-99.99,,,0.00,meteohub,2013-01-11 18:42:00,
2013-01-11 13:47:00,41.4,-1.5,31.03,North,3,5.0,5.0,16,-99.99,,,0.00,meteohub,2013-01-11 18:47:00,
2013-01-11 13:52:00,41.4,-1.5,31.03,NNE,33,4.0,5.0,16,-99.99,,,0.00,meteohub,2013-01-11 18:52:00,
2013-01-11 13:57:00,41.4,-1.5,31.03,North,6,4.0,5.0,16,-99.99,,,0.00,meteohub,2013-01-11 18:57:00,
2013-01-11 14:02:00,41.4,-1.5,31.03,NNE,23,4.0,6.0,16,-99.99,,,0.00,meteohub,2013-01-11 19:02:00,
2013-01-11 14:07:00,41.4,-1.5,31.03,NNE,28,6.0,6.0,16,-99.99,,,0.00,meteohub,2013-01-11 19:07:00,
2013-01-11 14:12:00,41.2,-1.7,31.03,North,4,6.0,6.0,16,-99.99,,,0.00,meteohub,2013-01-11 19:12:00,
2013-01-11 14:17:00,41.2,-1.7,31.03,North,357,6.0,6.0,16,-99.99,,,0.00,meteohub,2013-01-11 19:17:00,
2013-01-11 14:22:00,41.2,-1.7,31.03,NNE,33,4.0,6.0,16,-99.99,,,0.00,meteohub,2013-01-11 19:22:00,
2013-01-11 14:28:00,41.2,-1.7,31.03,North,353,4.0,6.0,16,-99.99,,,0.00,meteohub,2013-01-11 19:28:00,
2013-01-11 14:33:00,41.2,-1.7,31.03,NNE,32,4.0,6.0,16,-99.99,,,0.00,meteohub,2013-01-11 19:33:00,
2013-01-11 14:38:00,41.2,-1.7,31.03,North,11,5.0,5.0,16,-99.99,,,0.00,meteohub,2013-01-11 19:38:00,
2013-01-11 14:43:00,41.0,-1.8,31.03,NNE,15,4.0,5.0,16,-99.99,,,0.00,meteohub,2013-01-11 19:43:00,
2013-01-11 14:48:00,41.0,-1.8,31.03,North,0,4.0,5.0,16,-99.99,,,0.00,meteohub,2013-01-11 19:48:00,
2013-01-11 14:54:00,41.0,-1.8,31.03,North,357,2.0,5.0,16,-99.99,,,0.00,meteohub,2013-01-11 19:54:00,
2013-01-11 14:59:00,40.8,-2.0,31.03,North,353,4.0,5.0,16,-99.99,,,0.00,meteohub,2013-01-11 19:59:00,
2013-01-11 15:04:00,40.8,-2.0,31.03,North,1,0.0,5.0,16,-99.99,,,0.00,meteohub,2013-01-11 20:04:00,
2013-01-11 15:10:00,40.8,-2.0,31.03,North,357,0.0,5.0,16,-99.99,,,0.00,meteohub,2013-01-11 20:10:00,
2013-01-11 15:15:00,40.6,-2.0,31.03,North,357,0.0,5.0,16,-99.99,,,0.00,meteohub,2013-01-11 20:15:00,
2013-01-11 15:20:00,40.8,-2.0,31.03,North,4,0.0,3.0,16,-99.99,,,0.00,meteohub,2013-01-11 20:20:00,
2013-01-11 15:25:00,40.6,-2.0,31.03,NE,51,3.0,0.0,16,-99.99,,,0.00,meteohub,2013-01-11 20:25:00,
2013-01-11 15:31:00,40.5,0.3,31.03,NE,51,0.0,4.0,18,-99.99,,,0.00,meteohub,2013-01-11 20:31:00,
2013-01-11 15:36:00,40.5,-2.2,31.03,ESE,122,0.0,4.0,16,-99.99,,,0.00,meteohub,2013-01-11 20:36:00,
2013-01-11 15:41:00,40.3,0.1,31.03,SE,126,0.0,3.0,18,-99.99,,,0.00,meteohub,2013-01-11 20:41:00,
2013-01-11 15:46:00,40.3,0.1,31.03,SE,127,0.0,0.0,18,-99.99,,,0.00,meteohub,2013-01-11 20:46:00,
2013-01-11 15:51:00,40.3,0.1,31.03,SE,127,0.0,0.0,18,-99.99,,,0.00,meteohub,2013-01-11 20:51:00,
2013-01-11 15:57:00,39.9,-0.2,31.03,SE,129,0.0,0.0,18,-99.99,,,0.00,meteohub,2013-01-11 20:57:00,
2013-01-11 16:02:00,39.9,-0.2,31.03,SE,137,2.0,0.0,18,-99.99,,,0.00,meteohub,2013-01-11 21:02:00,
2013-01-11 16:07:00,39.7,-0.4,31.03,SE,137,2.0,4.0,18,-99.99,,,0.00,meteohub,2013-01-11 21:07:00,
2013-01-11 16:12:00,39.7,-0.4,31.03,SE,137,0.0,4.0,18,-99.99,,,0.00,meteohub,2013-01-11 21:12:00,
2013-01-11 16:17:00,39.6,-0.4,31.03,SE,137,0.0,4.0,18,-99.99,,,0.00,meteohub,2013-01-11 21:17:00,
2013-01-11 16:22:00,39.4,-0.6,31.03,SE,137,0.0,3.0,18,-99.99,,,0.00,meteohub,2013-01-11 21:22:00,
2013-01-11 16:27:00,39.4,-0.6,31.03,SE,136,0.0,3.0,18,-99.99,,,0.00,meteohub,2013-01-11 21:27:00,
2013-01-11 16:32:00,39.2,-0.8,31.03,SE,137,0.0,0.0,18,-99.99,,,0.00,meteohub,2013-01-11 21:32:00,
2013-01-11 16:37:00,39.2,-0.8,31.03,SE,136,0.0,0.0,18,-99.99,,,0.00,meteohub,2013-01-11 21:37:00,
2013-01-11 16:42:00,39.0,0.1,31.03,SE,136,0.0,0.0,19,-99.99,,,0.00,meteohub,2013-01-11 21:42:00,
2013-01-11 16:47:00,38.8,0.1,31.03,SE,137,0.0,0.0,19,-99.99,,,0.00,meteohub,2013-01-11 21:47:00,
2013-01-11 16:52:00,39.0,5.2,31.03,ENE,75,0.0,0.0,24,-99.99,,,0.00,meteohub,2013-01-11 21:52:00,
2013-01-11 16:57:00,38.8,6.8,31.03,ENE,67,0.0,0.0,26,-99.99,,,0.00,meteohub,2013-01-11 21:57:00,
2013-01-11 17:02:00,38.7,6.8,31.03,NE,42,3.0,0.0,26,-99.99,,,0.00,meteohub,2013-01-11 22:02:00,
2013-01-11 17:07:00,38.8,9.3,31.03,NE,35,4.0,4.0,29,-99.99,,,0.00,meteohub,2013-01-11 22:07:00,
2013-01-11 17:12:00,38.5,9.0,31.03,NE,34,0.0,4.0,29,-99.99,,,0.00,meteohub,2013-01-11 22:12:00,
2013-01-11 17:17:00,38.5,9.0,31.03,NE,34,3.0,4.0,29,-99.99,,,0.00,meteohub,2013-01-11 22:17:00,
2013-01-11 17:22:00,38.5,9.0,31.03,NNE,32,3.0,4.0,29,-99.99,,,0.00,meteohub,2013-01-11 22:22:00,
2013-01-11 17:27:00,38.5,9.0,31.03,North,5,4.0,4.0,29,-99.99,,,0.00,meteohub,2013-01-11 22:27:00,
2013-01-11 17:32:00,38.5,9.0,31.03,North,357,4.0,5.0,29,-99.99,,,0.00,meteohub,2013-01-11 22:32:00,
2013-01-11 17:37:00,38.5,9.0,31.03,North,8,5.0,5.0,29,-99.99,,,0.00,meteohub,2013-01-11 22:37:00,
2013-01-11 17:42:00,38.5,9.0,31.03,North,6,4.0,5.0,29,-99.99,,,0.00,meteohub,2013-01-11 22:42:00,
2013-01-11 17:48:00,38.7,9.1,31.03,North,6,4.0,5.0,29,-99.99,,,0.00,meteohub,2013-01-11 22:48:00,
2013-01-11 17:53:00,38.7,9.1,31.03,NNE,17,4.0,5.0,29,-99.99,,,0.00,meteohub,2013-01-11 22:53:00,
2013-01-11 17:58:00,38.7,9.1,31.03,NNE,16,6.0,6.0,29,-99.99,,,0.00,meteohub,2013-01-11 22:58:00,
2013-01-11 18:03:00,38.7,9.1,31.03,North,6,6.0,8.0,29,-99.99,,,0.00,meteohub,2013-01-11 23:03:00,
2013-01-11 18:09:00,38.7,9.1,31.03,North,357,6.0,8.0,29,-99.99,,,0.00,meteohub,2013-01-11 23:09:00,
2013-01-11 18:14:00,38.8,9.3,31.03,NNE,27,5.0,8.0,29,-99.99,,,0.00,meteohub,2013-01-11 23:14:00,
2013-01-11 18:19:00,38.8,9.3,31.03,NNE,29,8.0,8.0,29,-99.99,,,0.00,meteohub,2013-01-11 23:19:00,
2013-01-11 18:24:00,38.8,10.0,31.03,NNE,30,5.0,8.0,30,-99.99,,,0.00,meteohub,2013-01-11 23:24:00,
2013-01-11 18:30:00,38.8,10.0,31.03,NNE,22,5.0,8.0,30,-99.99,,,0.00,meteohub,2013-01-11 23:30:00,
2013-01-11 18:35:00,38.8,10.0,31.03,NNE,28,4.0,8.0,30,-99.99,,,0.00,meteohub,2013-01-11 23:35:00,
2013-01-11 18:40:00,38.8,10.8,31.03,NE,34,4.0,8.0,31,-99.99,,,0.00,meteohub,2013-01-11 23:40:00,
2013-01-11 18:45:00,38.7,10.6,31.03,NE,38,3.0,8.0,31,-99.99,,,0.00,meteohub,2013-01-11 23:45:00,
2013-01-11 18:51:00,38.8,12.2,31.03,NNE,30,5.0,5.0,33,-99.99,,,0.00,meteohub,2013-01-11 23:51:00,
2013-01-11 18:56:00,38.8,12.2,31.03,NNE,22,4.0,4.0,33,-99.99,,,0.00,meteohub,2013-01-11 23:56:00,
2013-01-11 19:01:00,38.8,13.5,31.03,NNE,31,5.0,6.0,35,-99.99,,,0.00,meteohub,2013-01-12 00:01:00,
2013-01-11 19:06:00,38.7,13.3,31.03,NE,34,3.0,6.0,35,-99.99,,,0.00,meteohub,2013-01-12 00:06:00,
2013-01-11 19:12:00,38.8,14.2,31.03,NE,34,4.0,6.0,36,-99.99,,,0.00,meteohub,2013-01-12 00:12:00,
2013-01-11 19:17:00,38.8,14.7,31.03,NE,48,3.0,6.0,37,-99.99,,,0.00,meteohub,2013-01-12 00:17:00,
2013-01-11 19:22:00,38.8,14.7,31.03,NE,48,3.0,4.0,37,-99.99,,,0.00,meteohub,2013-01-12 00:22:00,
2013-01-11 19:27:00,39.0,14.9,31.03,NE,56,4.0,4.0,37,-99.99,,,0.00,meteohub,2013-01-12 00:27:00,
2013-01-11 19:33:00,39.0,15.6,31.03,NE,50,3.0,4.0,38,-99.99,,,0.00,meteohub,2013-01-12 00:33:00,
2013-01-11 19:38:00,39.2,15.8,31.03,ENE,61,3.0,4.0,38,-99.99,,,0.00,meteohub,2013-01-12 00:38:00,
2013-01-11 19:43:00,39.2,15.1,31.03,ENE,69,2.0,4.0,37,-99.99,,,0.00,meteohub,2013-01-12 00:43:00,
2013-01-11 19:48:00,39.4,15.3,31.03,East,84,3.0,4.0,37,-99.99,,,0.00,meteohub,2013-01-12 00:48:00,
2013-01-11 19:54:00,39.4,15.3,31.03,East,83,3.0,4.0,37,-99.99,,,0.00,meteohub,2013-01-12 00:54:00,
2013-01-11 19:59:00,39.4,15.3,31.03,East,83,0.0,4.0,37,-99.99,,,0.00,meteohub,2013-01-12 00:59:00,
2013-01-11 20:04:00,39.4,15.3,31.03,East,83,3.0,4.0,37,-99.99,,,0.00,meteohub,2013-01-12 01:04:00,
2013-01-11 20:10:00,39.6,15.4,31.03,East,84,0.0,3.0,37,-99.99,,,0.00,meteohub,2013-01-12 01:10:00,
2013-01-11 20:15:00,39.6,15.4,31.03,East,84,0.0,3.0,37,-99.99,,,0.00,meteohub,2013-01-12 01:15:00,
2013-01-11 20:20:00,39.6,15.4,31.03,East,83,0.0,3.0,37,-99.99,,,0.00,meteohub,2013-01-12 01:20:00,
2013-01-11 20:25:00,39.6,15.4,31.03,East,84,0.0,3.0,37,-99.99,,,0.00,meteohub,2013-01-12 01:25:00,
2013-01-11 20:31:00,39.6,15.4,31.03,East,83,0.0,3.0,37,-99.99,,,0.00,meteohub,2013-01-12 01:31:00,
2013-01-11 20:36:00,39.7,16.2,31.03,East,83,3.0,0.0,38,-99.99,,,0.00,meteohub,2013-01-12 01:36:00,
2013-01-11 20:41:00,39.7,16.9,31.03,ENE,62,4.0,4.0,39,-99.99,,,0.00,meteohub,2013-01-12 01:41:00,
2013-01-11 20:46:00,39.7,16.9,31.03,ENE,70,3.0,4.0,39,-99.99,,,0.00,meteohub,2013-01-12 01:46:00,
2013-01-11 20:52:00,39.9,16.9,31.03,East,81,4.0,4.0,39,-99.99,,,0.00,meteohub,2013-01-12 01:52:00,
2013-01-11 20:57:00,39.9,16.9,31.03,East,95,4.0,4.0,39,-99.99,,,0.00,meteohub,2013-01-12 01:57:00,
2013-01-11 21:02:00,40.1,17.1,31.03,East,88,4.0,4.0,39,-99.99,,,0.00,meteohub,2013-01-12 02:02:00,
2013-01-11 21:07:00,40.3,17.2,31.03,ENE,70,4.0,4.0,39,-99.99,,,0.00,meteohub,2013-01-12 02:07:00,
2013-01-11 21:12:00,40.3,17.2,31.03,ENE,70,4.0,5.0,39,-99.99,,,0.00,meteohub,2013-01-12 02:12:00,
2013-01-11 21:18:00,40.3,17.2,31.03,East,79,4.0,5.0,39,-99.99,,,0.00,meteohub,2013-01-12 02:18:00,
2013-01-11 21:23:00,40.3,17.2,31.03,ENE,64,4.0,5.0,39,-99.99,,,0.00,meteohub,2013-01-12 02:23:00,
2013-01-11 21:28:00,40.3,17.2,31.03,NE,45,4.0,5.0,39,-99.99,,,0.00,meteohub,2013-01-12 02:28:00,
2013-01-11 21:33:00,40.3,17.2,31.03,NNE,12,6.0,6.0,39,-99.99,,,0.00,meteohub,2013-01-12 02:33:00,
2013-01-11 21:39:00,40.5,18.0,31.03,North,0,6.0,6.0,40,-99.99,,,0.00,meteohub,2013-01-12 02:39:00,
2013-01-11 21:44:00,40.5,18.0,31.03,NNE,33,8.0,8.0,40,-99.99,,,0.00,meteohub,2013-01-12 02:44:00,
2013-01-11 21:49:00,40.5,18.0,31.03,NNE,24,5.0,8.0,40,-99.99,,,0.00,meteohub,2013-01-12 02:49:00,
2013-01-11 21:55:00,40.5,18.7,31.03,NNE,19,5.0,8.0,41,-99.99,,,0.00,meteohub,2013-01-12 02:55:00,
2013-01-11 22:00:00,40.5,18.7,31.03,North,11,4.0,8.0,41,-99.99,,,0.00,meteohub,2013-01-12 03:00:00,
2013-01-11 22:05:00,40.5,18.7,31.03,North,4,4.0,8.0,41,-99.99,,,0.00,meteohub,2013-01-12 03:05:00,
2013-01-11 22:10:00,40.5,18.7,31.03,NNE,18,4.0,6.0,41,-99.99,,,0.00,meteohub,2013-01-12 03:10:00,
2013-01-11 22:16:00,40.5,18.7,31.03,NNE,26,3.0,5.0,41,-99.99,,,0.00,meteohub,2013-01-12 03:16:00,
2013-01-11 22:21:00,40.5,18.7,31.03,NNE,24,5.0,5.0,41,-99.99,,,0.00,meteohub,2013-01-12 03:21:00,
2013-01-11 22:26:00,40.5,18.7,31.03,NNE,23,4.0,5.0,41,-99.99,,,0.00,meteohub,2013-01-12 03:26:00,
2013-01-11 22:32:00,40.5,19.2,31.03,NNE,22,4.0,6.0,42,-99.99,,,0.00,meteohub,2013-01-12 03:32:00,
2013-01-11 22:37:00,40.6,19.9,31.03,NE,45,5.0,6.0,43,-99.99,,,0.00,meteohub,2013-01-12 03:37:00,
2013-01-11 22:42:00,40.8,21.2,31.03,NE,36,6.0,8.0,45,-99.99,,,0.00,meteohub,2013-01-12 03:42:00,
2013-01-11 22:48:00,41.0,22.3,31.03,NE,51,8.0,9.0,47,-99.99,,,0.00,meteohub,2013-01-12 03:48:00,
2013-01-11 22:53:00,41.2,23.9,31.03,East,79,10.0,10.0,50,-99.99,,,0.00,meteohub,2013-01-12 03:53:00,
2013-01-11 22:58:00,41.2,24.8,31.03,NE,49,9.0,9.0,52,-99.99,,,0.00,meteohub,2013-01-12 03:58:00,
2013-01-11 23:03:00,41.2,25.3,31.03,NE,50,9.0,10.0,53,-99.99,,,0.00,meteohub,2013-01-12 04:03:00,
2013-01-11 23:09:00,41.2,26.6,31.03,NE,40,6.0,11.0,56,-99.99,,,0.00,meteohub,2013-01-12 04:09:00,
2013-01-11 23:14:00,41.2,26.6,31.03,NE,55,6.0,11.0,56,-99.99,,,0.00,meteohub,2013-01-12 04:14:00,
2013-01-11 23:19:00,41.2,27.1,31.03,ENE,60,8.0,10.0,57,-99.99,,,0.00,meteohub,2013-01-12 04:19:00,
2013-01-11 23:24:00,41.0,27.0,31.03,NNE,28,8.0,10.0,57,-99.99,,,0.00,meteohub,2013-01-12 04:24:00,
2013-01-11 23:30:00,41.0,27.0,31.03,NNE,33,8.0,9.0,57,-99.99,,,0.00,meteohub,2013-01-12 04:30:00,
2013-01-11 23:35:00,41.0,27.0,31.03,NNE,30,6.0,9.0,57,-99.99,,,0.00,meteohub,2013-01-12 04:35:00,
2013-01-11 23:40:00,40.6,26.6,31.03,NE,50,8.0,9.0,57,-99.99,,,0.00,meteohub,2013-01-12 04:40:00,
2013-01-11 23:45:00,40.6,26.2,31.03,NE,39,8.0,9.0,56,-99.99,,,0.00,meteohub,2013-01-12 04:45:00,
2013-01-11 23:51:00,40.6,26.2,31.03,NNE,12,6.0,10.0,56,-99.99,,,0.00,meteohub,2013-01-12 04:51:00,
2013-01-11 23:56:00,40.6,25.7,31.03,NE,46,7.0,10.0,55,-99.99,,,0.00,meteohub,2013-01-12 04:56:00,